Regional Weather Roundup
Issued by NWS

Home | Current Version | Previous Version | Text Only | Print | Product List | Glossary Off
Versions: 1 2 3 4 5 6 7 8 9 10 11 12 13 14 15 16 17 18 19 20 21 22 23 24 25 26 27 28 29 30 31 32 33 34 35 36 37 38 39 40 41 42 43 44 45 46 47 48 49 50

000
ASUS43 KDMX 030807
RWRIA

WEATHER ROUNDUP FOR IOWA
NATIONAL WEATHER SERVICE DES MOINES IA
300 AM CDT FRI JUL 03 2015

NOTE: "FAIR" INDICATES FEW OR NO CLOUDS BELOW 12,000 FEET WITH NO
SIGNIFICANT WEATHER AND/OR OBSTRUCTIONS TO VISIBILITY.

* - THESE STATIONS ARE NOT NWS STATIONS...THUS NOT UNDER NWS
QUALITY CONTROL.  THEY ALSO DO NOT REPORT WEATHER SUCH
AS PRECIPITATION OR FOG.

IAZ001>003-012>014-020>022-031>034-043>046-030900-
   NORTHWEST IOWA

CITY           SKY/WX    TMP DP  RH WIND       PRES   REMARKS
CARROLL *      CLOUDY    59  59 100 CALM      30.00S
CHEROKEE *       N/A     54  54 100 CALM      30.02S FOG
DENISON *      CLOUDY    55  55 100 CALM      29.99S
LE MARS *      MOCLDY    54  54 100 CALM      30.02F FOG
ORANGE CITY *  CLEAR     55  54  94 E3        30.02F FOG
SHELDON *      CLOUDY    50  50 100 CALM      30.01S
SIOUX CITY     FOG       57  55  93 CALM      30.01S VSB 1
SPENCER        FOG       48  45  89 CALM      30.02F VSB 1/2
STORM LAKE *   CLEAR     55  52  88 N3        30.03S
$$

IAZ055>058-069>071-079>083-090>094-030900-
   SOUTHWEST IOWA

CITY           SKY/WX    TMP DP  RH WIND       PRES   REMARKS
ATLANTIC *     CLOUDY    59  57  94 CALM      29.99S
AUDUBON *      CLEAR     59  55  88 CALM      30.00S
CLARINDA *     CLOUDY    61  57  88 N5        29.99F
COUNCIL BLFS *   N/A     59  55  88 NE6       29.99S
CRESTON *      MOCLDY    61  57  88 NE6       29.98F
HARLAN  *      CLEAR     57  57 100 CALM      30.03S
LAMONI         MOCLDY    62  58  86 N5        29.97F
RED OAK *      CLOUDY    61  57  88 NE3       29.98S
SHENANDOAH *     N/A     63  57  82 NE6       29.98S
$$

IAZ047>049-059>061-072>074-084-030900-
   CENTRAL IOWA

CITY           SKY/WX    TMP DP  RH WIND       PRES   REMARKS
AMES           MOCLDY    56  54  93 CALM      29.99F
ANKENY *       CLEAR     57  57 100 N5        29.98F
CHARITON *     CLOUDY    59  57  94 CALM      29.98S
DES MOINES     CLOUDY    63  54  72 CALM      29.98F
GRINNELL*      CLOUDY    59  55  88 CALM      29.99F
KNOXVILLE *    CLOUDY    61  55  82 NE5       29.97S
MARSHALLTOWN   CLOUDY    58  56  93 CALM      29.99S
PELLA *        MOCLDY    59  59 100 CALM      29.99S
PERRY *          N/A     59  57  94 CALM      29.99S
$$

IAZ004>006-015-016-023>025-035-036-030900-
   NORTH CENTRAL IOWA

CITY           SKY/WX    TMP DP  RH WIND       PRES   REMARKS
ALGONA *       CLEAR     55  52  88 NW5       30.02S
CLARION *      CLEAR     52  50  93 CALM      30.01S
ESTHERVILLE    CLEAR     50  48  93 SW5       30.01F
FORT DODGE *   PTCLDY    54  50  87 CALM      30.01F
MASON CITY     PTCLDY    55  53  93 CALM      30.02S
FOREST CITY *  PTCLDY    52  52 100 CALM      30.01S
IOWA FALLS *     N/A     55  52  88 CALM      30.01S
$$

IAZ007>011-017>019-026>030-037>042-050>054-066-030900-
   NORTHEAST IOWA

CITY           SKY/WX    TMP DP  RH WIND       PRES   REMARKS
CEDAR RAPIDS   CLOUDY    59  56  89 N3        29.97F
CHARLES CITY * PTCLDY    55  55 100 CALM      30.01S
CLINTON *      CLOUDY    57  54  88 E6        30.00F
DECORAH *        N/A    N/A N/A N/A MISG        N/A
DUBUQUE        MOCLDY    56  50  80 CALM      29.99F
MONTICELLO *   CLEAR     55 N/A N/A CALM      29.98F
OELWEIN *      CLEAR     55  54  94 CALM      30.00F
WATERLOO       MOCLDY    54  52  93 CALM      29.98F
$$

IAZ064-065-067-068-078-030900-
   EAST CENTRAL IOWA

CITY           SKY/WX    TMP DP  RH WIND       PRES   REMARKS
DAVENPORT      CLOUDY    60  56  86 NE5       29.98S
IOWA CITY      CLOUDY    62  54  74 NE6       29.98F
MT. PLEASANT * CLOUDY    64  59  82 N5        29.96F
MUSCATINE *    CLEAR     63  57  82 CALM      29.96F
QUAD CITIES    CLOUDY    61  56  83 E5        29.96F
$$

IAZ062-063-075>077-085>089-095>099-030900-
   SOUTHEAST IOWA

CITY           SKY/WX    TMP DP  RH WIND       PRES   REMARKS
BURLINGTON     CLOUDY    64  59  83 NE5       29.95F
FAIRFIELD *    CLOUDY    61  59  94 N5        29.97S
FORT MADISON * MOCLDY    63  61  94 CALM      29.96S
KEOKUK *       CLOUDY    64  59  82 NE3       29.94F
OSKALOOSA *    MOCLDY    59  57  94 CALM      29.98S
CENTERVILLE *  CLEAR     61  59  94 CALM      29.98F
OTTUMWA        CLOUDY    62  57  83 NE5       29.95F
WASHINGTON *   PTCLDY    61  57  88 NE3       29.98F
$$

ABBREVIATIONS USED IN REMARKS
   TC - TEMPERATURES IN CELSIUS
  WCI - WIND CHILL INDEX
   HX - HEAT INDEX
  VSB - VISIBILITY
$$



USA.gov is the U.S. government's official web portal to all federal, state and local government web resources and services.